UKKKUKLL

Guest
Details From UKKK - ZHULIANY INTL
To UKLL - LVIV INTL
Flight Number -
Tags generated
Created
Modified
Stats Distance 255 nm / 472 km
Max Altitude 0 ft / 0 m
Waypoints 5
Social Downloads 0
Likes 0
Share VATSIM

Download

Looking for another format? Having issues loading an existing format? Contact us
Advertisement - Login to hide

Notes

None

Route

UKKK CH UR22 BABIS UKLL

ID Type Via Altitude Latitude Longitude Leg Dist Tot Dist Heading (true) Name
O UKKK APT - 0 ft / 0 m 50.40169˚ 30.44970˚ - 0 nm - ZHULIANY INTL
CH NDB - 0 ft / 0 m 50.45641˚ 28.69154˚ 67 nm 67 nm 273° / 272° CHERNIAKHIV NDB
SW NDB UR22 (AWY-HI) 0 ft / 0 m 50.18138˚ 27.04153˚ 65 nm 132 nm 256° / 255° SHEPETIVKA NDB
BABIS FIX UR22 (AWY-HI) 0 ft / 0 m 49.99803˚ 26.35626˚ 28 nm 161 nm 248° / 247° -
O UKLL APT - 0 ft / 0 m 49.81264˚ 23.95611˚ 93 nm 254 nm 264° / 262° LVIV INTL

Altitude Profile

Advertisement - Login to hide

Weather


0- 5 10 15 20 25 30 35+ Temperature / ° C

Clouds and Precipitation
Forecast for 2018-05-22 12:00 UTC. Updated 3 hours ago

Ground ~20,000 ft ~40,000 ft Winds

UKKK

Details ICAO UKKK (IEV)
Name ZHULIANY INTL
Region Ukraine
Timezone Europe/Kiev (UTC+3.0)
Stats Elevation 586 ft / 179 m (AMSL)
Location 50.401694° 30.449697°
Runways 1
Magnetic Variation 7.648° E

METAR

UKKK 221430Z 17003MPS 140V210 CAVOK 22/09 Q1022 R26/CLRD70 NOSIG

Decode

TAF

Not found

Departure Runways

ID Width Length Bearing (true) Bearing (mag) Surface Threshold Offset Overrun Length
08 161 ft / 49 m 5,926 ft / 1,806 m 86.02° 78.37° Concrete 0 ft / 0 m 0 ft / 0 m
26 161 ft / 49 m 5,926 ft / 1,806 m 266.04° 258.39° Concrete 0 ft / 0 m 1,132 ft / 345 m

UKLL

Details ICAO UKLL (LWO)
Name LVIV INTL
Region Ukraine
Timezone Europe/Kiev (UTC+3.0)
Stats Elevation 1,071 ft / 326 m (AMSL)
Location 49.812638° 23.956111°
Runways 1
Magnetic Variation 6.152° E

METAR

UKLL 221430Z 04004MPS 340V130 9000 -TSRA SCT032CB BKN032 18/14 Q1019 R13/290055 TEMPO -TSRAGR BKN017CB

Decode

TAF

Not found

Destination Runways

ID Width Length Bearing (true) Bearing (mag) Surface Threshold Offset Overrun Length
13 148 ft / 45 m 8,300 ft / 2,530 m 136.09° 129.94° Asphalt 0 ft / 0 m 160 ft / 49 m
31 148 ft / 45 m 8,300 ft / 2,530 m 316.11° 309.96° Asphalt 0 ft / 0 m 145 ft / 44 m

Approach Navaids

Runway Type Ident Frequency Range Bearing (true) Bearing (mag) Slope Elevation
13 Localiser ILO 109.50 MHz 18 nm / 33 km 135.94° 129.79° - 1,071 ft / 326 m (AMSL)
13 Glidescope ILO 109.50 MHz 10 nm / 19 km 136.10° 129.94° 3.00° 1,071 ft / 326 m (AMSL)
31 Localiser ILV 110.30 MHz 18 nm / 33 km 315.64° 309.49° - 1,071 ft / 326 m (AMSL)
31 Glidescope ILV 110.30 MHz 10 nm / 19 km 316.10° 309.94° 3.00° 1,071 ft / 326 m (AMSL)

Popular Alternatives